�������l�o���
Date,Time,MP-1(��Sv/h),MP-2(��Sv/h),MP-3(��Sv/h),MP-4(��Sv/h),MP-5(��Sv/h),MP-6(��Sv/h),MP-7(��Sv/h),MP-8(��Sv/h),����,����(m/s),���J
2019/12/21,00:00,0.719,1.044,0.699,1.318,0.914,0.409,0.720,0.683,�k�k��,2.1,��
2019/12/21,00:10,0.718,1.041,0.700,1.318,0.914,0.409,0.720,0.683,�k�k��,2.3,��
2019/12/21,00:20,0.718,1.045,0.701,1.317,0.913,0.410,0.718,0.684,�k��,1.6,��
2019/12/21,00:30,0.719,1.044,0.700,1.319,0.917,0.409,0.721,0.684,�k��,1.3,��
2019/12/21,00:40,0.717,1.044,0.700,1.317,0.913,0.411,0.721,0.683,�k�k��,1.4,��
2019/12/21,00:50,0.718,1.045,0.700,1.318,0.916,0.409,0.721,0.683,�k��,1.6,��
2019/12/21,01:00,0.717,1.044,0.700,1.317,0.914,0.408,0.719,0.683,�k�k��,1.9,��
2019/12/21,01:10,0.718,1.044,0.699,1.315,0.914,0.408,0.719,0.682,�k��,1.7,��
2019/12/21,01:20,0.717,1.043,0.698,1.318,0.914,0.409,0.720,0.684,�k�k��,2.0,��
2019/12/21,01:30,0.717,1.043,0.699,1.318,0.915,0.411,0.719,0.682,�k��,1.6,��
2019/12/21,01:40,0.719,1.045,0.701,1.315,0.915,0.411,0.720,0.683,�k�k��,1.5,��
2019/12/21,01:50,0.719,1.043,0.699,1.319,0.915,0.409,0.721,0.683,�k��,2.4,��
2019/12/21,02:00,0.719,1.045,0.699,1.318,0.915,0.410,0.720,0.682,�k��,2.5,��
2019/12/21,02:10,0.719,1.044,0.699,1.320,0.915,0.411,0.719,0.685,�k��,1.9,��
2019/12/21,02:20,0.718,1.044,0.699,1.319,0.915,0.409,0.722,0.682,�k��,2.3,��
2019/12/21,02:30,0.718,1.046,0.700,1.318,0.916,0.409,0.720,0.685,���k��,3.4,��
2019/12/21,02:40,0.717,1.043,0.699,1.318,0.914,0.410,0.720,0.683,�k��,3.2,��
2019/12/21,02:50,0.717,1.044,0.700,1.318,0.912,0.411,0.720,0.682,�k��,3.2,��
2019/12/21,03:00,0.718,1.044,0.698,1.319,0.915,0.411,0.720,0.684,�k��,2.3,��
2019/12/21,03:10,0.719,1.044,0.701,1.320,0.913,0.409,0.719,0.683,�k��,2.0,��
2019/12/21,03:20,0.719,1.044,0.700,1.319,0.915,0.410,0.719,0.684,�k�k��,2.2,��
2019/12/21,03:30,0.719,1.044,0.700,1.319,0.915,0.410,0.719,0.684,�k�k��,1.4,��
2019/12/21,03:40,0.719,1.045,0.701,1.319,0.912,0.410,0.720,0.681,�k�k��,1.8,��
2019/12/21,03:50,0.719,1.043,0.699,1.319,0.914,0.411,0.721,0.683,�k�k��,2.2,��
2019/12/21,04:00,0.716,1.047,0.700,1.317,0.914,0.410,0.721,0.683,�k�k��,2.6,��
2019/12/21,04:10,0.718,1.044,0.700,1.319,0.914,0.410,0.720,0.683,�k�k��,3.0,��
2019/12/21,04:20,0.717,1.046,0.699,1.319,0.913,0.410,0.719,0.683,�k�k��,2.4,��
2019/12/21,04:30,0.720,1.045,0.700,1.318,0.912,0.410,0.720,0.683,�k�k��,1.8,��
2019/12/21,04:40,0.718,1.043,0.698,1.318,0.915,0.411,0.721,0.683,�k,2.3,��
2019/12/21,04:50,0.718,1.043,0.701,1.316,0.914,0.410,0.720,0.685,�k,1.6,�L
2019/12/21,05:00,0.719,1.045,0.700,1.319,0.915,0.409,0.720,0.684,�k,3.0,��
2019/12/21,05:10,0.720,1.046,0.700,1.319,0.915,0.410,0.720,0.684,�k,3.0,��
2019/12/21,05:20,0.718,1.045,0.700,1.315,0.913,0.409,0.720,0.684,�k�k��,2.2,��
2019/12/21,05:30,0.719,1.046,0.700,1.316,0.916,0.411,0.721,0.683,�k�k��,2.2,��
2019/12/21,05:40,0.718,1.043,0.700,1.316,0.914,0.410,0.722,0.685,�k,1.2,��
2019/12/21,05:50,0.718,1.046,0.699,1.320,0.917,0.411,0.721,0.685,�k,2.1,��
2019/12/21,06:00,0.720,1.044,0.701,1.317,0.913,0.410,0.721,0.685,�k,1.7,��
2019/12/21,06:10,0.722,1.044,0.701,1.320,0.915,0.412,0.720,0.684,�k�k��,2.0,��
2019/12/21,06:20,0.719,1.045,0.699,1.316,0.915,0.411,0.720,0.684,�k,2.1,��
2019/12/21,06:30,0.720,1.044,0.700,1.319,0.915,0.411,0.721,0.684,�k,1.9,��
2019/12/21,06:40,0.720,1.046,0.699,1.318,0.917,0.411,0.721,0.684,�k�k��,2.0,��
2019/12/21,06:50,0.719,1.044,0.700,1.318,0.918,0.411,0.721,0.683,�k�k��,1.9,��
2019/12/21,07:00,0.720,1.046,0.698,1.316,0.916,0.411,0.720,0.684,�k�k��,0.9,��
2019/12/21,07:10,0.720,1.043,0.700,1.322,0.915,0.411,0.721,0.684,�k��,1.2,��
2019/12/21,07:20,0.720,1.042,0.699,1.316,0.913,0.410,0.721,0.684,���k��,0.6,�L
2019/12/21,07:30,0.719,1.044,0.699,1.317,0.913,0.411,0.720,0.683,���k��,1.0,�L
2019/12/21,07:40,0.718,1.044,0.700,1.316,0.915,0.411,0.722,0.682,���k��,1.5,�L
2019/12/21,07:50,0.719,1.044,0.700,1.318,0.915,0.411,0.720,0.683,��,1.6,��
2019/12/21,08:00,0.718,1.043,0.702,1.318,0.915,0.410,0.720,0.684,���k��,1.4,��
2019/12/21,08:10,0.719,1.044,0.698,1.319,0.913,0.411,0.721,0.682,�k��,1.6,��
2019/12/21,08:20,0.719,1.043,0.700,1.317,0.915,0.411,0.722,0.683,��,1.2,�L
2019/12/21,08:30,0.720,1.045,0.700,1.319,0.914,0.410,0.720,0.686,��,1.6,��
2019/12/21,08:40,0.720,1.045,0.698,1.317,0.915,0.410,0.722,0.684,���쐼,2.5,��
2019/12/21,08:50,0.719,1.042,0.700,1.316,0.915,0.410,0.721,0.682,�쐼,3.0,��
2019/12/21,09:00,0.715,1.043,0.700,1.318,0.914,0.410,0.722,0.686,�쐼,3.3,��
2019/12/21,09:10,0.716,1.043,0.700,1.317,0.915,0.412,0.722,0.684,�쐼,2.9,��
2019/12/21,09:20,0.717,1.043,0.701,1.316,0.917,0.411,0.722,0.683,���쐼,2.4,��
2019/12/21,09:30,0.720,1.041,0.699,1.317,0.916,0.411,0.722,0.683,�쐼,2.0,��
2019/12/21,09:40,0.720,1.045,0.699,1.317,0.915,0.410,0.720,0.685,�쐼,1.5,��
2019/12/21,09:50,0.720,1.044,0.698,1.318,0.919,0.411,0.721,0.684,�쐼,1.5,��
2019/12/21,10:00,0.718,1.048,0.701,1.320,0.916,0.410,0.720,0.685,��쐼,1.8,��
2019/12/21,10:10,0.721,1.044,0.702,1.316,0.916,0.411,0.719,0.682,��,2.1,��
2019/12/21,10:20,0.719,1.044,0.701,1.318,0.916,0.411,0.720,0.683,��,2.4,��
2019/12/21,10:30,0.722,1.044,0.700,1.320,0.916,0.410,0.720,0.683,��,2.7,��
2019/12/21,10:40,0.719,1.044,0.701,1.318,0.914,0.411,0.718,0.683,��,2.3,��
2019/12/21,10:50,0.720,1.044,0.700,1.318,0.915,0.410,0.720,0.683,��,2.4,��
2019/12/21,11:00,0.720,1.044,0.700,1.319,0.917,0.410,0.720,0.684,��,3.3,��
2019/12/21,11:10,0.720,1.042,0.700,1.318,0.916,0.412,0.720,0.684,��,4.2,��
2019/12/21,11:20,0.720,1.043,0.700,1.319,0.916,0.410,0.720,0.684,��,3.9,��
2019/12/21,11:30,0.719,1.042,0.703,1.320,0.917,0.411,0.720,0.683,��,3.1,��
2019/12/21,11:40,0.715,1.042,0.700,1.318,0.916,0.409,0.719,0.685,��,3.0,��
2019/12/21,11:50,0.718,1.043,0.700,1.318,0.917,0.412,0.720,0.684,��,2.7,��
2019/12/21,12:00,0.720,1.044,0.702,1.320,0.916,0.411,0.721,0.685,��쐼,2.2,��
2019/12/21,12:10,0.721,1.044,0.700,1.319,0.919,0.412,0.724,0.684,��,2.9,��
2019/12/21,12:20,0.721,1.045,0.701,1.320,0.917,0.411,0.720,0.684,��,2.7,�L
2019/12/21,12:30,0.722,1.046,0.701,1.319,0.918,0.411,0.721,0.684,��쐼,3.1,�L
2019/12/21,12:40,0.723,1.044,0.699,1.320,0.916,0.411,0.721,0.682,��,3.1,��
2019/12/21,12:50,0.723,1.045,0.702,1.317,0.918,0.412,0.721,0.685,��,2.6,��
2019/12/21,13:00,0.720,1.045,0.700,1.317,0.918,0.412,0.719,0.686,��,2.5,��
2019/12/21,13:10,0.722,1.045,0.700,1.319,0.916,0.413,0.721,0.684,��,2.8,��
2019/12/21,13:20,0.724,1.044,0.701,1.318,0.917,0.411,0.721,0.684,��,2.6,��
2019/12/21,13:30,0.724,1.042,0.698,1.318,0.917,0.410,0.723,0.686,��,2.6,��
2019/12/21,13:40,0.723,1.043,0.700,1.315,0.916,0.411,0.720,0.685,��쓌,4.0,��
2019/12/21,13:50,0.722,1.046,0.700,1.317,0.918,0.411,0.720,0.683,��쓌,4.2,��
2019/12/21,14:00,0.718,1.045,0.702,1.316,0.919,0.410,0.722,0.685,��,5.6,��
2019/12/21,14:10,0.718,1.044,0.701,1.320,0.917,0.410,0.721,0.685,��쓌,6.0,��
2019/12/21,14:20,0.720,1.042,0.699,1.319,0.918,0.412,0.722,0.683,��,5.3,��
2019/12/21,14:30,0.719,1.046,0.701,1.316,0.918,0.412,0.719,0.684,��,5.8,��
2019/12/21,14:40,0.717,1.045,0.700,1.320,0.917,0.412,0.722,0.684,��쓌,5.0,��
2019/12/21,14:50,0.717,1.046,0.702,1.319,0.919,0.412,0.721,0.685,��,4.1,��
2019/12/21,15:00,0.719,1.044,0.701,1.317,0.914,0.412,0.722,0.685,��,4.9,��
2019/12/21,15:10,0.720,1.043,0.700,1.320,0.917,0.410,0.719,0.684,��,4.0,��
2019/12/21,15:20,0.720,1.045,0.701,1.319,0.918,0.414,0.721,0.686,��,4.9,��
2019/12/21,15:30,0.722,1.049,0.700,1.316,0.916,0.413,0.722,0.684,��쓌,6.3,��
2019/12/21,15:40,0.719,1.046,0.700,1.318,0.919,0.413,0.723,0.684,��,6.3,��
2019/12/21,15:50,0.721,1.046,0.702,1.321,0.918,0.413,0.721,0.685,��,6.0,��
2019/12/21,16:00,0.722,1.047,0.701,1.319,0.918,0.412,0.721,0.684,��,6.9,��
2019/12/21,16:10,0.723,1.046,0.702,1.321,0.917,0.414,0.723,0.683,��,6.3,��
2019/12/21,16:20,0.724,1.048,0.699,1.317,0.917,0.412,0.722,0.684,��,6.0,��
2019/12/21,16:30,0.724,1.048,0.701,1.318,0.916,0.412,0.721,0.684,��,7.7,��
2019/12/21,16:40,0.725,1.047,0.700,1.316,0.917,0.413,0.724,0.682,��,7.7,��
2019/12/21,16:50,0.723,1.047,0.701,1.318,0.916,0.413,0.722,0.685,��,7.1,��
2019/12/21,17:00,0.723,1.048,0.699,1.320,0.916,0.413,0.721,0.683,��,6.9,��
2019/12/21,17:10,0.724,1.047,0.700,1.316,0.917,0.413,0.721,0.684,��,7.7,��
2019/12/21,17:20,0.724,1.046,0.702,1.318,0.918,0.412,0.722,0.683,��,7.4,��
2019/12/21,17:30,0.722,1.049,0.701,1.320,0.918,0.414,0.724,0.684,��,6.9,��
2019/12/21,17:40,0.724,1.048,0.699,1.321,0.918,0.413,0.720,0.685,��,6.6,��
2019/12/21,17:50,0.724,1.048,0.701,1.317,0.918,0.414,0.721,0.684,��,5.5,��
2019/12/21,18:00,0.722,1.046,0.703,1.321,0.918,0.413,0.723,0.685,��,5.2,��
2019/12/21,18:10,0.722,1.049,0.701,1.318,0.916,0.412,0.724,0.684,��,6.7,��
2019/12/21,18:20,0.721,1.045,0.700,1.318,0.915,0.413,0.721,0.684,��,7.2,��
2019/12/21,18:30,0.723,1.047,0.700,1.318,0.916,0.413,0.723,0.684,��,6.1,��
2019/12/21,18:40,0.722,1.046,0.701,1.319,0.917,0.413,0.722,0.685,��,6.3,��
2019/12/21,18:50,0.724,1.048,0.699,1.319,0.919,0.414,0.721,0.684,��,5.5,��
2019/12/21,19:00,0.724,1.048,0.702,1.318,0.915,0.412,0.720,0.683,��,5.6,��
2019/12/21,19:10,0.723,1.046,0.702,1.318,0.917,0.412,0.722,0.683,��쐼,6.6,��
2019/12/21,19:20,0.722,1.046,0.703,1.318,0.916,0.412,0.722,0.684,��쐼,6.0,��
2019/12/21,19:30,0.723,1.047,0.701,1.316,0.916,0.413,0.721,0.684,�쐼,5.7,��
2019/12/21,19:40,0.724,1.045,0.701,1.318,0.918,0.414,0.722,0.683,��쐼,6.3,��
2019/12/21,19:50,0.722,1.046,0.700,1.318,0.917,0.413,0.724,0.684,��쐼,7.7,��
2019/12/21,20:00,0.723,1.046,0.699,1.319,0.918,0.413,0.722,0.684,�쐼,7.5,��
2019/12/21,20:10,0.724,1.048,0.702,1.320,0.916,0.413,0.722,0.684,��쐼,7.4,��
2019/12/21,20:20,0.724,1.046,0.701,1.318,0.917,0.413,0.723,0.685,��쐼,6.9,��
2019/12/21,20:30,0.723,1.047,0.702,1.316,0.918,0.414,0.724,0.685,��쐼,7.7,��
2019/12/21,20:40,0.724,1.046,0.700,1.319,0.916,0.412,0.722,0.684,�쐼,8.2,��
2019/12/21,20:50,0.723,1.047,0.702,1.317,0.917,0.412,0.723,0.684,��쐼,7.7,��
2019/12/21,21:00,0.724,1.047,0.701,1.318,0.918,0.414,0.722,0.685,��쐼,6.9,��
2019/12/21,21:10,0.724,1.048,0.702,1.317,0.917,0.412,0.722,0.685,��쐼,7.1,��
2019/12/21,21:20,0.727,1.046,0.701,1.317,0.918,0.413,0.723,0.684,��쐼,7.7,��
2019/12/21,21:30,0.724,1.047,0.701,1.319,0.917,0.412,0.723,0.683,��쐼,6.4,��
2019/12/21,21:40,0.725,1.045,0.703,1.321,0.916,0.413,0.723,0.685,��,6.6,��
2019/12/21,21:50,0.724,1.045,0.702,1.319,0.915,0.413,0.724,0.684,��,6.9,��
2019/12/21,22:00,0.725,1.047,0.704,1.318,0.916,0.413,0.723,0.685,��,7.7,��
2019/12/21,22:10,0.725,1.043,0.703,1.318,0.918,0.412,0.723,0.682,��,7.4,��
2019/12/21,22:20,0.724,1.046,0.702,1.318,0.918,0.413,0.724,0.684,��,5.5,��
2019/12/21,22:30,0.726,1.046,0.702,1.316,0.918,0.415,0.722,0.684,��,5.5,��
2019/12/21,22:40,0.724,1.044,0.702,1.317,0.916,0.413,0.722,0.684,��,5.3,��
2019/12/21,22:50,0.725,1.048,0.703,1.318,0.917,0.413,0.721,0.684,��,4.0,��
2019/12/21,23:00,0.726,1.047,0.701,1.319,0.915,0.413,0.722,0.684,��,3.8,��
2019/12/21,23:10,0.725,1.045,0.702,1.320,0.916,0.414,0.724,0.686,��쓌,4.1,��
2019/12/21,23:20,0.725,1.045,0.702,1.317,0.915,0.413,0.722,0.686,���k��,0.9,��
2019/12/21,23:30,0.723,1.045,0.700,1.320,0.914,0.415,0.723,0.684,�k�k��,0.7,��
2019/12/21,23:40,0.723,1.045,0.700,1.316,0.916,0.415,0.723,0.684,�k��,0.9,��
2019/12/21,23:50,0.723,1.047,0.700,1.319,0.917,0.414,0.723,0.685,���쐼,1.8,��
